Location: Cudham
(51.3000°N, 0.0667°E)
Time: 20:51:04
(UTC+00:00)

CZ-2C R/B - Pass Details

Date: 19 May 2025
Orbit: 631 x 693 km, 98.1° (Epoch: 21 June)

Event Time Altitude Azimuth Distance (km) Brightness Sun altitude
Rises 23:13:16 0° 12° (NNE) 2,942 8.3 -18.1°
Reaches altitude 10° 23:15:29 10° 10° (N) 2,027 7.3 -18.2°
Maximum altitude 23:19:52 69° 288° (WNW) 682 3.8 -18.3°
Enters shadow 23:21:57 30° 213° (SSW) 1,136 4.5 -18.3°
